Weather Roundup
Issued by NWS

Home | Current Version | Previous Version | Text Only | Print | Product List | Glossary On
Versions: 1 2 3 4 5 6 7 8 9 10 11 12 13 14 15 16 17 18 19 20 21 22 23 24 25 26 27 28 29 30 31 32 33 34 35 36 37 38 39 40 41 42 43 44 45 46 47 48 49 50
300
NZUS93 KARX 211259
HRRWXR

CURRENT HOURLY OBSERVATIONS ACROSS
MUCH OF THE UPPER MISSISSIPPI VALLEY
NATIONAL WEATHER SERVICE LA CROSSE WI
700 AM CST TUE NOV 21 2017


...SOUTHEAST MINNESOTA...


CITY           SKY/WX    TMP DP  RH WIND       PRES   REMARKS
ROCHESTER      CLOUDY    25  16  68 NW24G35   29.78R WCI   9
ROCHESTER/MAYO CLOUDY    27  16  64 W25G35    29.78R WCI  12
WINONA         CLOUDY    32  21  64 NW18G26   29.77R WCI  20
AUSTIN         NOT AVBL
ALBERT LEA     MOCLDY    25  12  58 NW20G29   29.86R WCI  11
DODGE CENTER   PTCLDY    25  14  63 W23G32    29.81R WCI  10
PRESTON        CLEAR     26  15  64 NW20G30   29.78R WCI  12
OWATONNA       CLOUDY    25  16  68 W23G30    29.85R WCI  10
FARIBAULT      FLURRIES  25  18  74 W17G29    29.86R WCI  11
$$

...ELSEWHERE IN MINNESOTA...


CITY           SKY/WX    TMP DP  RH WIND       PRES   REMARKS
MINNEAPOLIS    FLURRIES  27  19  72 NW20G30   29.83R WCI  13
INTNL FALLS    FLURRIES  16   8  71 NW21G26   29.82R WCI  -1
DULUTH         FLURRIES  19  11  70 NW20G28   29.69R WCI   3
RED WING       CLOUDY    28  10  47 NW18G29   29.80R WCI  16
REDWOOD FALLS  CLOUDY    23  10  57 NW16G35   29.97R WCI  10
MANKATO        FLURRIES  23  14  68 NW24G32   29.90R WCI   7
WORTHINGTON    CLOUDY    18   9  68 NW29G36   30.00R WCI  -1
FAIRMONT       PTCLDY    22  12  65 NW28G39   29.95R WCI   4
$$

...SOUTHWEST WISCONSIN...


CITY           SKY/WX    TMP DP  RH WIND       PRES   REMARKS
LA CROSSE      PTCLDY    33  18  53 NW21G29   29.75R WCI  21
PRAIRIE DU CHI CLOUDY    38  10  32 W18G24    29.74R WCI  28
BOSCOBEL       CLOUDY    39  11  31 NW15G22   29.72R WCI  31
LONE ROCK      NOT AVBL
PLATTEVILLE    CLOUDY    39  25  57 W16G22    29.70R WCI  30
FORT MC COY    CLEAR     33  17  50 W13G29    29.70R WCI  24
MAUSTON-NEW LI SUNNY     36  15  41 W15G22    29.64R WCI  27
VIROQUA        FAIR      32  17  54 NW21G28   29.70R WCI  20
WIS DELLS      CLOUDY    39  13  34 W16G25    29.61R WCI  30
$$

...ELSEWHERE IN WISCONSIN...


CITY           SKY/WX    TMP DP  RH WIND       PRES   REMARKS
MILWAUKEE      CLOUDY    43  33  68 SW10      29.60R
MADISON        CLOUDY    42  22  44 W9G24     29.63R
GREEN BAY      PTCLDY    38  25  59 W17G28    29.54R WCI  28
EAU CLAIRE     CLOUDY    27  12  53 NW18G37   29.74R WCI  14
BLACK RVR FLS  FAIR      32  17  53 NW15G26   29.68R WCI  22
MEDFORD        CLOUDY    29  19  65 W17G24    29.58R WCI  17
WAUSAU         PTCLDY    31  20  63 W17G31    29.56R WCI  19
WIS RAPIDS     CLEAR     33  20  58 NW16G25   29.63R WCI  23
MARSHFIELD     CLOUDY    31  19  61 W25G38    29.61R WCI  17
RICE LAKE      CLOUDY    26  15  61 W17G29    29.72R WCI  14
$$

...NORTHEAST IOWA...


CITY           SKY/WX    TMP DP  RH WIND       PRES   REMARKS
WATERLOO       CLOUDY    36  16  44 NW25G32   29.82R WCI  24
DUBUQUE        CLOUDY    38  18  44 NW15      29.73R WCI  29
DECORAH        CLOUDY    30  18  59 NW15G26   29.77R WCI  19
MASON CITY     PTCLDY    28  16  60 NW29G35   29.87R WCI  12
CHARLES CITY   CLOUDY    30  16  55 NW21G33   29.83R WCI  17
OELWEIN        CLOUDY    36  18  48 NW21G31   29.80R WCI  24
$$

...ELSEWHERE IN IOWA...


CITY           SKY/WX    TMP DP  RH WIND       PRES   REMARKS
DES MOINES     LGTSLEET  39  25  57 NW15      29.90R WCI  31
IOWA CITY      CLOUDY    43  25  49 NW14G23   29.82R
FORT DODGE     CLOUDY    37  19  48 NW12G21   29.91R WCI  29
MARSHALLTOWN   CLOUDY    38  19  46 NW22G35   29.85R WCI  27
CEDAR RAPIDS   LGT RAIN  39  23  52 NW20G25   29.81R WCI  29
$$

...NORTHERN ILLINOIS...


CITY           SKY/WX    TMP DP  RH WIND       PRES   REMARKS
CHICAGO-OHARE  CLOUDY    42  31  64 SW13      29.67R
CHICAGO-MIDWAY NOT AVBL
MOLINE         CLOUDY    44  28  53 W10       29.75R
ROCKFORD       CLOUDY    43  31  62 SW8       29.69R
PEORIA         CLOUDY    37  32  82 SW5       29.79R WCI  33
$$

NOTE: "FAIR" INDICATES FEW OR NO CLOUDS BELOW 12,000 FEET WITH NO
SIGNIFICANT WEATHER AND/OR OBSTRUCTIONS TO VISIBILITY. WIND
SPEEDS ARE IN MILES-PER-HOUR.




USA.gov is the U.S. government's official web portal to all federal, state and local government web resources and services.